CW5218 Weather Reports


Display with metric or nautical units.
time (UTC)temp
F
wind
direction
speed
MPH
gust
MPH
rain 1hr
in
rain 24hr
in
rain mn
in
humidity
%
barometer
mb
20260505101549 51 0 0.0 1.0 0.00 0.00 0.00 90 1012.4
20260505100053 51 0 0.0 1.0 0.00 0.00 0.00 90 1012.4
20260505094533 50 0 0.0 1.0 0.00 0.00 0.00 90 1012.4
20260505093031 50 0 0.0 1.0 0.00 0.00 0.00 90 1012.2
20260505091530 50 0 0.0 1.0 0.00 0.00 0.00 90 1012.2
20260505090029 50 89 0.0 2.0 0.00 0.00 0.00 89 1012.0
20260505084531 50 0 0.0 1.0 0.00 0.00 0.00 89 1012.0
20260505083031 50 0 0.0 1.0 0.00 0.00 0.00 89 1011.9
20260505081535 50 0 0.0 1.0 0.00 0.00 0.00 88 1012.0
20260505080029 50 0 0.0 1.0 0.00 0.00 0.00 87 1012.1
20260505074529 50 0 0.0 1.0 0.00 0.00 0.00 87 1011.9
20260505073036 50 63 0.0 1.0 0.00 0.00 0.00 86 1011.9
20260505071531 51 89 0.0 2.0 0.00 0.00 0.00 86 1011.6
20260505070034 51 0 0.0 1.0 0.00 0.00 0.00 84 1011.4
20260505064532 52 0 0.0 1.0 0.00 0.00 0.00 84 1011.2
20260505063038 52 0 0.0 1.0 0.00 0.00 0.00 83 1011.2
20260505061538 53 0 0.0 1.0 0.00 0.00 0.00 82 1010.8
20260505060031 53 0 0.0 1.0 0.00 0.00 0.00 82 1010.7
20260505054543 54 0 0.0 1.0 0.00 0.00 0.00 80 1010.7
20260505053039 54 0 0.0 1.0 0.00 0.00 0.00 79 1010.6
20260505051539 55 0 0.0 1.0 0.00 0.00 0.00 77 1010.6
20260505041530 58 0 0.0 1.0 0.00 0.00 0.00 71 1010.1
20260505040031 59 0 0.0 2.0 0.00 0.00 0.00 69 1009.8
20260505034529 61 0 0.0 2.0 0.00 0.00 0.00 66 1009.6
20260505033028 62 135 0.0 2.0 0.00 0.00 0.00 65 1009.4
20260505031538 63 0 0.0 4.0 0.00 0.00 0.00 63 1009.1
20260505030030 65 253 0.0 5.0 0.00 0.00 0.00 60 1009.2
20260505024532 66 1 1.0 4.0 0.00 0.00 0.00 58 1008.9
20260505023033 67 286 0.0 3.0 0.00 0.00 0.00 55 1008.8
20260505021535 69 231 1.0 5.0 0.00 0.00 0.00 50 1008.9
20260505020037 71 269 1.0 7.0 0.00 0.00 0.00 46 1008.6
20260505014530 72 1 1.0 6.0 0.00 0.00 0.00 45 1008.6
20260505013031 73 216 2.0 6.0 0.00 0.00 0.00 45 1008.7
20260505011536 73 161 2.0 7.0 0.00 0.00 0.00 45 1008.6
20260505010048 74 257 2.0 6.0 0.00 0.00 0.00 43 1008.6
20260505004530 75 243 2.0 7.0 0.00 0.00 0.00 43 1008.5
20260505003037 77 199 1.0 7.0 0.00 0.00 0.00 42 1008.5
20260505001530 78 223 2.0 7.0 0.00 0.00 0.00 41 1008.2
20260505000041 78 279 2.0 8.0 0.00 0.00 0.00 40 1008.2
20260504234530 80 319 1.0 4.0 0.00 0.00 0.00 38 1008.3
20260504233033 79 135 1.0 5.0 0.00 0.00 0.00 41 1008.4
20260504231532 78 178 1.0 6.0 0.00 0.00 0.00 41 1008.4
20260504230040 77 178 1.0 3.0 0.00 0.00 0.00 42 1008.5
20260504224529 77 145 1.0 5.0 0.00 0.00 0.00 41 1008.6
20260504223031 77 264 3.0 7.0 0.00 0.00 0.00 41 1008.7
20260504221542 77 89 3.0 8.0 0.00 0.00 0.00 45 1008.8
20260504220035 77 279 1.0 8.0 0.00 0.00 0.00 44 1009.0
20260504214530 77 59 2.0 9.0 0.00 0.00 0.00 44 1009.1
20260504213046 77 152 1.0 8.0 0.00 0.00 0.00 46 1009.2
20260504211534 77 161 1.0 4.0 0.00 0.00 0.00 41 1009.5
20260504210034 76 1 1.0 7.0 0.00 0.00 0.00 44 1009.6
20260504204532 74 152 2.0 10.0 0.00 0.00 0.00 47 1009.8
20260504203044 74 197 2.0 6.0 0.00 0.00 0.00 46 1009.8
20260504201532 74 277 2.0 7.0 0.00 0.00 0.00 53 1009.9
20260504200030 73 269 3.0 7.0 0.00 0.00 0.00 49 1010.0
20260504194538 73 15 1.0 6.0 0.00 0.00 0.00 50 1009.9
20260504193032 72 219 2.0 9.0 0.00 0.00 0.00 53 1010.1
20260504191538 72 290 3.0 9.0 0.00 0.00 0.00 56 1010.1
20260504190031 72 240 2.0 7.0 0.00 0.00 0.00 53 1010.3
20260504184534 70 112 1.0 8.0 0.00 0.00 0.00 52 1010.3
20260504183030 70 314 1.0 3.0 0.00 0.00 0.00 55 1010.4
20260504181529 69 223 2.0 9.0 0.00 0.00 0.00 60 1010.5
20260504180038 68 46 1.0 7.0 0.00 0.00 0.00 62 1010.4
20260504174530 67 269 1.0 6.0 0.00 0.00 0.00 62 1010.4
20260504173032 67 262 2.0 5.0 0.00 0.00 0.00 59 1010.5
20260504171533 66 314 1.0 4.0 0.00 0.00 0.00 61 1010.4